Regional Weather Roundup
Issued by NWS

Home | Current Version | Previous Version | Graphics & Text | Print | Product List | Glossary On
Versions: 1 2 3 4 5 6 7 8 9 10 11 12 13 14 15 16 17 18 19 20 21 22 23 24 25 26 27 28 29 30 31 32 33 34 35 36 37 38 39 40 41 42 43 44 45 46 47 48 49 50
000
ASUS43 KIND 231509
RWRIN

WEATHER ROUNDUP FOR INDIANA
NATIONAL WEATHER SERVICE INDIANAPOLIS IN
1000 AM EST SUN NOV 23 2014

NOTE: "FAIR" INDICATES FEW OR NO CLOUDS BELOW 12,000 FEET WITH NO
SIGNIFICANT WEATHER AND/OR OBSTRUCTIONS TO VISIBILITY.

* - STATION DOES NOT REPORT WEATHER SUCH AS PRECIPITATION OR FOG.

+ - STATION NOT QUALITY CONTROLLED BY THE NATIONAL WEATHER SERVICE.
    USE DATA WITH CAUTION...ESPECIALLY DEWPOINT AND RELATIVE
    HUMIDITY OBSERVATIONS.

INZ001>003-010>013-019-020-231600-
NORTHWEST INDIANA

CITY           SKY/WX    TMP DP  RH WIND       PRES   REMARKS
GARY /AIRPORT/ CLOUDY    52  45  76 S20       29.77F
KNOX *+        CLOUDY    49  43  79 S15       29.80F
LA PORTE +     CLOUDY    50  46  84 S7        29.81F
MICHIGAN CITY+ CLOUDY    50  41  71 S12G17    29.79F
MONTICELLO +   CLOUDY    47  43  85 SE5       29.82S
RENSSELAER +   CLOUDY    50  46  87 S13       29.81S
VALPARAISO     CLOUDY    49  43  80 S9        29.80F

$$

LMZ046-743>745-231600-
SOUTHERN LAKE MICHIGAN

STATION/POSITION TIME  TEMP WIND        PRES
                       AIR  DIR/SP/G
                 (UTC) (F)  (DEG/KT/KT) (MB)
MICHIGAN CITY    1400   50  150/ 16/ 22   N/A

$$

INZ004-005-014>016-021>024-231600-
NORTH CENTRAL INDIANA

CITY           SKY/WX    TMP DP  RH WIND       PRES   REMARKS
GOSHEN         CLOUDY    50  43  77 S13       29.84F
LOGANSPORT +   CLOUDY    46  41  81 SE8       29.85F
PERU/GRISSOM   CLOUDY    47  47  97 S12       29.85F
ROCHESTER +    CLOUDY    50  43  76 S9G17     29.85S
SOUTH BEND     CLOUDY    51  44  77 S14       29.83F
WARSAW +       CLOUDY    48  43  81 S9        29.85F

$$

INZ006>009-017-018-025>027-231600-
NORTHEAST INDIANA

CITY           SKY/WX    TMP DP  RH WIND       PRES   REMARKS
ANGOLA *+      PTSUNNY   46  34  61 S6        29.88S
AUBURN +       CLOUDY    50  41  71 S3        29.89S
FORT WAYNE     CLOUDY    49  44  83 S9        29.90S
HUNTINGTON +   PTSUNNY   49  43  78 S8        29.88F

$$

INZ028-029-035-036-043>045-051>053-231600-
WEST CENTRAL INDIANA

CITY           SKY/WX    TMP DP  RH WIND       PRES   REMARKS
GREENCASTLE +  CLOUDY    50  43  76 S12       29.84F
LAFAYETTE      CLOUDY    49  44  83 SE6       29.81F
TERRE HAUTE    CLOUDY    54  44  69 S12       29.82F

$$

INZ030>032-037>040-046>048-054>057-064-065-231600-
CENTRAL INDIANA

CITY           SKY/WX    TMP DP  RH WIND       PRES   REMARKS
CP ATTERBURY + CLOUDY    52  43  71 SE7       29.89F
COLUMBUS       CLOUDY    52  43  71 S7        29.90F
FRANKFORT +    CLOUDY    51  46  84 SE7       29.84F
INDIANAPOLIS   CLOUDY    52  42  69 SE15      29.84F
-EAGLE CREEK   CLOUDY    52  42  69 SE7       29.84F
KOKOMO *+      CLOUDY    46  41  81 S13       29.85F
MARION +       CLOUDY    49  41  75 S7        29.88F
MT COMFORT *+  CLOUDY    52  36  54 S12       29.87F
SHELBYVILLE    CLOUDY    54  42  64 S15       29.89F
ZIONSVILLE +   CLOUDY    51  41  68 S13       29.86F

$$

INZ033-034-041-042-049-050-058-059-231600-
EAST CENTRAL INDIANA

CITY           SKY/WX    TMP DP  RH WIND       PRES   REMARKS
MUNCIE         CLOUDY    53  42  66 S14G24    29.88F

$$

INZ060-061-067>069-081>083-085>088-231600-
SOUTHWEST INDIANA

CITY           SKY/WX    TMP DP  RH WIND       PRES   REMARKS
EVANSVILLE     CLOUDY    52  45  77 SE6       29.83F
HUNTINGBURG *+ CLOUDY    52  46  82 SE7       29.85F
WASHINGTON +   DRIZZLE   53  46  78 SE13G22   29.84F

$$

INZ062-063-066-070>080-084-089>092-231600-
SOUTH CENTRAL AND SOUTHEAST INDIANA

CITY           SKY/WX    TMP DP  RH WIND       PRES   REMARKS
BLOOMINGTON    CLOUDY    53  43  68 SE12      29.84F

$$




USA.gov is the U.S. government's official web portal to all federal, state and local government web resources and services.